Content
SEND FEEDBACK

Daily
Averages
Monthly
Summary
United States of America

TOMBSTONE, ARIZONA


Home > North America > United States > Arizona
Elevation: 4392 feet     Latitude: 31 43N     Longitude: 110 04W

WEATHER
 
SELECT A DAY
Number of Records: 122,106;   Date Range: 1/3/95 - 8/12/14
 
SHARE

PRINT THIS DATA

[ ← Previous Day ]
WEATHER ALMANAC - JANUARY 19, 2013
[ Next Day → ]
[ °C ]   °F
Weather ElementAverageHighLow
Temperature52.6 °F66.9 °F (2:56 pm)39 °F (1:56 am)
Dewpoint18 °F24.1 °F (1:56 pm)10.9 °F (2:56 am)
Humidity26.6 %39 % (6:56 am)16 % (11:56 am)
Barometer30.17 in30.25 in (9:56 am)30.10 in (4:56 pm)
Wind Speed2 mph6.9 mph (2:56 pm)
Weather ElementAverage
Visibility10 mi
Wind DirectionNE (47.8 °)

Weather ElementTotal
Precipitation---
Heating Degree Days12.1 (Base 65)
Growing Degree Days3 (Base 50)
Averaged from 23 records on January 19, 2013
WEATHER CONDITIONS BREAKOUT
WIND DIRECTION BREAKOUT
WEATHER BY HOUR - JANUARY 19, 2013
[ °C ]   °F
Local TimeTemperatureDewpointHumidityBarometerVisibilityWind DirectionWind SpeedGust SpeedPrecipitationEventsConditions
1:56 AM39.0 °F12.0 °F33 %30.16 in10.0 miCalmClear
2:56 AM44.1 °F10.9 °F26 %30.14 in10.0 miCalmClear
3:56 AM39.9 °F12.0 °F32 %30.15 in10.0 miCalmClear
4:56 AM45.0 °F10.9 °F25 %30.15 in10.0 miCalmClear
5:56 AM42.1 °F12.9 °F31 %30.18 in10.0 miWest (270°)3.5 mphClear
6:56 AM39.0 °F16.0 °F39 %30.21 in10.0 miSouth (180°)4.6 mphClear
7:56 AM42.1 °F15.1 °F34 %30.24 in10.0 miCalmClear
8:56 AM48.9 °F15.1 °F26 %30.24 in10.0 miCalmClear
9:56 AM54.0 °F15.1 °F22 %30.25 in10.0 miCalmClear
10:56 AM59.0 °F16.0 °F19 %30.24 in10.0 miVariable3.5 mphClear
11:56 AM63.0 °F16.0 °F16 %30.19 in10.0 miCalmClear
12:56 PM66.0 °F18.0 °F16 %30.15 in10.0 miVariable4.6 mphClear
1:56 PM66.0 °F24.1 °F20 %30.13 in10.0 miNorth (10°)3.5 mphClear
2:56 PM66.9 °F24.1 °F20 %30.11 in10.0 miESE (110°)6.9 mphClear
3:56 PM66.9 °F24.1 °F20 %30.11 in10.0 miCalmClear
4:56 PM66.0 °F24.1 °F20 %30.10 in10.0 miESE (110°)4.6 mphClear
5:56 PM59.0 °F24.1 °F26 %30.14 in10.0 miSouth (190°)4.6 mphClear
6:56 PM55.9 °F21.0 °F26 %30.17 in10.0 miNorth (10°)5.8 mphClear
7:56 PM53.1 °F21.0 °F29 %30.19 in10.0 miCalmClear
8:56 PM48.9 °F21.0 °F33 %30.20 in10.0 miSW (220°)3.5 mphClear
9:56 PM50.0 °F19.0 °F29 %30.19 in10.0 miCalmClear
10:56 PM46.0 °F19.9 °F35 %30.18 in10.0 miCalmClear
11:56 PM48.0 °F21.0 °F34 %30.16 in10.0 miCalmClear
Hourly data recorded from KFHU, located miles away from Tombstone, Arizona







STORIES FROM OUR PARTNERS